�������l�o���
Date,Time,MP-1(��Sv/h),MP-2(��Sv/h),MP-3(��Sv/h),MP-4(��Sv/h),MP-5(��Sv/h),MP-6(��Sv/h),MP-7(��Sv/h),MP-8(��Sv/h),����,����(m/s),���J
2023/07/27,00:00,0.542,0.822,0.501,0.990,0.735,0.327,0.577,0.540,�k�k��,1.1,��
2023/07/27,00:10,0.543,0.824,0.500,0.991,0.733,0.328,0.575,0.538,�k,0.8,��
2023/07/27,00:20,0.543,0.822,0.501,0.988,0.734,0.328,0.576,0.539,���쓌,0.6,��
2023/07/27,00:30,0.542,0.826,0.502,0.988,0.734,0.327,0.576,0.540,��쓌,1.2,��
2023/07/27,00:40,0.542,0.824,0.500,0.991,0.733,0.328,0.576,0.537,��,1.5,��
2023/07/27,00:50,0.541,0.824,0.500,0.992,0.734,0.327,0.577,0.538,��,2.0,��
2023/07/27,01:00,0.541,0.824,0.501,0.989,0.734,0.327,0.576,0.540,��,2.2,��
2023/07/27,01:10,0.541,0.825,0.501,0.989,0.735,0.328,0.576,0.539,��,2.3,��
2023/07/27,01:20,0.542,0.825,0.500,0.989,0.734,0.327,0.575,0.539,��쓌,2.5,��
2023/07/27,01:30,0.541,0.822,0.500,0.990,0.734,0.329,0.576,0.540,��,2.6,��
2023/07/27,01:40,0.541,0.825,0.499,0.990,0.734,0.328,0.576,0.538,��쐼,2.9,��
2023/07/27,01:50,0.542,0.823,0.500,0.990,0.735,0.327,0.577,0.541,��쐼,3.1,��
2023/07/27,02:00,0.543,0.822,0.500,0.991,0.734,0.327,0.576,0.541,�쐼,2.6,��
2023/07/27,02:10,0.541,0.823,0.500,0.989,0.733,0.328,0.577,0.539,���쐼,1.7,��
2023/07/27,02:20,0.543,0.823,0.502,0.991,0.735,0.327,0.576,0.538,��,2.6,��
2023/07/27,02:30,0.542,0.825,0.501,0.990,0.734,0.328,0.576,0.538,��,3.0,��
2023/07/27,02:40,0.540,0.822,0.500,0.989,0.733,0.327,0.575,0.539,���쐼,2.6,��
2023/07/27,02:50,0.542,0.823,0.500,0.993,0.734,0.327,0.575,0.539,���k��,1.5,��
2023/07/27,03:00,0.543,0.823,0.500,0.990,0.733,0.327,0.576,0.539,��,1.2,��
2023/07/27,03:10,0.542,0.823,0.500,0.991,0.734,0.327,0.575,0.540,�쐼,1.1,��
2023/07/27,03:20,0.542,0.822,0.500,0.991,0.733,0.328,0.574,0.540,�쐼,0.9,��
2023/07/27,03:30,0.543,0.822,0.501,0.990,0.735,0.327,0.575,0.540,���쐼,0.8,��
2023/07/27,03:40,0.542,0.823,0.501,0.993,0.732,0.327,0.577,0.540,-,CALM,��
2023/07/27,03:50,0.542,0.825,0.500,0.990,0.733,0.327,0.576,0.541,���k��,0.6,��
2023/07/27,04:00,0.539,0.824,0.499,0.990,0.732,0.329,0.575,0.540,-,CALM,��
2023/07/27,04:10,0.542,0.824,0.499,0.991,0.732,0.328,0.576,0.541,�k,1.7,��
2023/07/27,04:20,0.541,0.822,0.500,0.992,0.733,0.327,0.575,0.540,�k,2.6,��
2023/07/27,04:30,0.542,0.825,0.500,0.993,0.734,0.327,0.575,0.540,�k��,3.8,��
2023/07/27,04:40,0.542,0.823,0.500,0.991,0.732,0.325,0.576,0.539,�k�k��,4.0,��
2023/07/27,04:50,0.541,0.822,0.499,0.990,0.733,0.327,0.575,0.539,�k�k��,3.2,��
2023/07/27,05:00,0.541,0.822,0.499,0.991,0.733,0.327,0.577,0.539,�k�k��,4.0,��
2023/07/27,05:10,0.540,0.822,0.499,0.993,0.735,0.327,0.575,0.539,�k��,3.2,��
2023/07/27,05:20,0.541,0.822,0.501,0.992,0.733,0.326,0.577,0.539,�k�k��,3.0,��
2023/07/27,05:30,0.543,0.825,0.501,0.991,0.731,0.326,0.575,0.539,�k��,2.6,��
2023/07/27,05:40,0.540,0.823,0.499,0.991,0.734,0.327,0.574,0.540,�k��,2.8,��
2023/07/27,05:50,0.541,0.825,0.499,0.991,0.734,0.326,0.576,0.541,�k��,2.9,��
2023/07/27,06:00,0.541,0.822,0.500,0.990,0.734,0.326,0.575,0.539,�k��,2.0,��
2023/07/27,06:10,0.541,0.823,0.502,0.990,0.733,0.327,0.577,0.540,�k�k��,2.9,��
2023/07/27,06:20,0.539,0.821,0.500,0.992,0.734,0.326,0.575,0.538,�k�k��,3.0,��
2023/07/27,06:30,0.540,0.824,0.499,0.990,0.734,0.326,0.576,0.538,�k�k��,3.5,��
2023/07/27,06:40,0.539,0.823,0.501,0.992,0.732,0.328,0.576,0.539,�k�k��,2.6,��
2023/07/27,06:50,0.538,0.820,0.501,0.993,0.732,0.327,0.576,0.537,�k�k��,3.1,��
2023/07/27,07:00,0.538,0.823,0.500,0.992,0.735,0.328,0.577,0.540,�k,2.2,��
2023/07/27,07:10,0.540,0.821,0.500,0.994,0.732,0.327,0.576,0.540,�k�k��,2.3,��
2023/07/27,07:20,0.540,0.821,0.500,0.990,0.732,0.327,0.577,0.539,�k,2.6,��
2023/07/27,07:30,0.541,0.823,0.500,0.989,0.733,0.326,0.577,0.539,�k�k��,2.2,��
2023/07/27,07:40,0.540,0.824,0.499,0.989,0.731,0.328,0.576,0.540,�k�k��,2.3,��
2023/07/27,07:50,0.539,0.824,0.501,0.990,0.734,0.327,0.578,0.541,�k�k��,2.5,��
2023/07/27,08:00,0.539,0.821,0.500,0.992,0.732,0.326,0.576,0.540,�k,2.3,��
2023/07/27,08:10,0.540,0.822,0.499,0.991,0.733,0.326,0.578,0.541,�k�k��,2.3,��
2023/07/27,08:20,0.542,0.822,0.499,0.993,0.731,0.327,0.578,0.540,�k��,1.9,��
2023/07/27,08:30,0.539,0.821,0.500,0.991,0.734,0.327,0.578,0.539,�k�k��,2.3,��
2023/07/27,08:40,0.541,0.822,0.499,0.991,0.732,0.326,0.578,0.538,�k�k��,2.6,��
2023/07/27,08:50,0.540,0.821,0.498,0.992,0.732,0.326,0.578,0.539,�k��,2.9,��
2023/07/27,09:00,0.541,0.822,0.498,0.991,0.734,0.327,0.578,0.538,���k��,3.5,��
2023/07/27,09:10,0.541,0.821,0.501,0.992,0.732,0.326,0.577,0.537,���k��,3.8,��
2023/07/27,09:20,0.540,0.826,0.500,0.991,0.733,0.326,0.578,0.539,�k��,3.6,��
2023/07/27,09:30,0.541,0.822,0.499,0.992,0.734,0.325,0.579,0.537,�k��,2.6,��
2023/07/27,09:40,0.540,0.824,0.498,0.991,0.735,0.326,0.578,0.539,��,2.5,��
2023/07/27,09:50,0.542,0.826,0.500,0.992,0.735,0.325,0.578,0.539,���쓌,2.9,��
2023/07/27,10:00,0.542,0.824,0.500,0.992,0.735,0.326,0.578,0.538,��,3.1,��
2023/07/27,10:10,0.542,0.825,0.500,0.993,0.738,0.325,0.575,0.539,���쓌,3.6,��
2023/07/27,10:20,0.542,0.826,0.501,0.992,0.736,0.324,0.575,0.538,���쓌,3.7,��
2023/07/27,10:30,0.542,0.826,0.501,0.994,0.739,0.326,0.575,0.536,�쓌,4.8,��
2023/07/27,10:40,0.543,0.826,0.503,0.992,0.736,0.326,0.575,0.538,���쓌,3.9,��
2023/07/27,10:50,0.542,0.827,0.504,0.992,0.737,0.325,0.575,0.540,�쓌,3.8,��
2023/07/27,11:00,0.542,0.827,0.502,0.994,0.737,0.326,0.575,0.540,��쓌,3.6,��
2023/07/27,11:10,0.545,0.825,0.502,0.993,0.734,0.326,0.575,0.540,�쓌,3.9,��
2023/07/27,11:20,0.543,0.827,0.503,0.990,0.736,0.326,0.576,0.540,�쓌,4.2,��
2023/07/27,11:30,0.543,0.825,0.502,0.991,0.737,0.326,0.577,0.540,�쓌,3.9,��
2023/07/27,11:40,0.544,0.827,0.501,0.990,0.737,0.325,0.576,0.541,�쓌,3.1,��
2023/07/27,11:50,0.544,0.827,0.502,0.992,0.739,0.326,0.577,0.540,�쓌,4.7,��
2023/07/27,12:00,0.543,0.825,0.500,0.993,0.735,0.327,0.577,0.541,�쓌,4.0,��
2023/07/27,12:10,0.543,0.827,0.502,0.993,0.736,0.327,0.575,0.542,�쓌,5.0,��
2023/07/27,12:20,0.544,0.828,0.502,0.994,0.737,0.326,0.576,0.541,�쓌,4.8,��
2023/07/27,12:30,0.545,0.827,0.503,0.994,0.737,0.327,0.576,0.540,�쓌,4.4,��
2023/07/27,12:40,0.546,0.827,0.504,0.992,0.738,0.327,0.576,0.542,��쓌,4.2,��
2023/07/27,12:50,0.546,0.829,0.503,0.995,0.741,0.328,0.578,0.541,�쓌,5.1,��
2023/07/27,13:00,0.546,0.829,0.502,0.993,0.740,0.327,0.578,0.540,�쓌,5.6,��
2023/07/27,13:10,0.546,0.828,0.504,0.993,0.740,0.328,0.578,0.542,�쓌,4.5,��
2023/07/27,13:20,0.546,0.829,0.504,0.992,0.738,0.327,0.577,0.541,��쓌,4.3,��
2023/07/27,13:30,0.547,0.829,0.503,0.993,0.739,0.328,0.579,0.539,�쓌,4.3,��
2023/07/27,13:40,0.545,0.828,0.503,0.994,0.738,0.330,0.580,0.541,��쓌,4.5,��
2023/07/27,13:50,0.547,0.828,0.504,0.995,0.740,0.329,0.580,0.539,��쓌,4.9,��
2023/07/27,14:00,0.548,0.828,0.505,0.994,0.741,0.328,0.579,0.541,��,5.7,��
2023/07/27,14:10,0.548,0.828,0.503,0.996,0.741,0.329,0.578,0.541,��쓌,6.4,��
2023/07/27,14:20,0.547,0.830,0.505,0.994,0.738,0.328,0.580,0.540,��쓌,7.2,��
2023/07/27,14:30,0.546,0.828,0.504,0.994,0.741,0.329,0.579,0.540,��쓌,6.9,��
2023/07/27,14:40,0.545,0.828,0.505,0.995,0.737,0.328,0.579,0.539,��쓌,6.2,��
2023/07/27,14:50,0.544,0.830,0.504,0.994,0.741,0.329,0.578,0.534,��쓌,6.7,��
2023/07/27,15:00,0.545,0.832,0.503,0.996,0.740,0.329,0.579,0.530,��쓌,6.6,��
2023/07/27,15:10,0.546,0.828,0.503,0.998,0.738,0.327,0.577,0.530,��,5.7,��
2023/07/27,15:20,0.545,0.827,0.501,0.997,0.739,0.328,0.578,0.532,��,6.8,��
2023/07/27,15:30,0.544,0.829,0.501,0.998,0.740,0.329,0.577,0.531,��쓌,7.0,��
2023/07/27,15:40,0.544,0.828,0.504,0.998,0.738,0.328,0.578,0.533,��쓌,6.8,��
2023/07/27,15:50,0.546,0.828,0.503,0.998,0.741,0.324,0.577,0.533,��쓌,7.5,��
2023/07/27,16:00,0.544,0.827,0.501,0.999,0.738,0.324,0.577,0.531,��쓌,7.5,��
2023/07/27,16:10,0.546,0.827,0.501,0.998,0.739,0.323,0.576,0.532,��쓌,8.1,��
2023/07/27,16:20,0.546,0.827,0.503,0.999,0.738,0.323,0.575,0.532,��쓌,7.9,��
2023/07/27,16:30,0.544,0.827,0.502,0.999,0.738,0.322,0.577,0.533,��,7.1,��
2023/07/27,16:40,0.545,0.827,0.501,0.997,0.739,0.324,0.576,0.533,��쓌,6.2,��
2023/07/27,16:50,0.544,0.826,0.502,0.996,0.738,0.323,0.577,0.533,��,4.9,��
2023/07/27,17:00,0.544,0.827,0.499,0.995,0.738,0.323,0.577,0.532,��,4.4,��
2023/07/27,17:10,0.544,0.825,0.501,0.995,0.738,0.323,0.577,0.533,��,5.5,��
2023/07/27,17:20,0.543,0.828,0.500,0.997,0.736,0.325,0.577,0.533,��,5.1,�L
2023/07/27,17:30,0.545,0.828,0.500,0.995,0.738,0.323,0.576,0.533,��,5.8,�L
2023/07/27,17:40,0.544,0.828,0.501,0.997,0.740,0.323,0.576,0.534,��쐼,5.9,�L
2023/07/27,17:50,0.546,0.828,0.501,0.996,0.738,0.325,0.577,0.533,��쐼,4.3,�L
2023/07/27,18:00,0.544,0.828,0.502,0.998,0.738,0.323,0.578,0.533,��쐼,3.5,��
2023/07/27,18:10,0.545,0.830,0.502,1.000,0.739,0.324,0.577,0.533,��,5.6,��
2023/07/27,18:20,0.545,0.825,0.503,0.998,0.738,0.324,0.576,0.535,��,3.7,��
2023/07/27,18:30,0.545,0.828,0.500,0.996,0.737,0.325,0.577,0.534,��,2.6,��
2023/07/27,18:40,0.544,0.829,0.502,0.997,0.738,0.325,0.578,0.535,��,2.8,��
2023/07/27,18:50,0.545,0.828,0.501,0.996,0.738,0.326,0.578,0.534,��,4.0,��
2023/07/27,19:00,0.546,0.828,0.501,0.998,0.738,0.324,0.576,0.535,��,4.5,��
2023/07/27,19:10,0.543,0.827,0.502,0.999,0.739,0.326,0.577,0.535,��,5.4,��
2023/07/27,19:20,0.544,0.826,0.502,0.995,0.739,0.326,0.576,0.533,��쐼,5.4,��
2023/07/27,19:30,0.546,0.827,0.501,0.999,0.739,0.325,0.575,0.534,��쐼,4.6,��
2023/07/27,19:40,0.544,0.829,0.502,0.998,0.738,0.326,0.576,0.534,��,4.6,��
2023/07/27,19:50,0.542,0.827,0.501,0.995,0.738,0.325,0.578,0.534,��,4.1,��
2023/07/27,20:00,0.544,0.825,0.502,0.996,0.738,0.325,0.576,0.535,��,3.7,��
2023/07/27,20:10,0.545,0.826,0.502,0.999,0.737,0.323,0.575,0.535,��쐼,3.9,��
2023/07/27,20:20,0.545,0.826,0.501,0.997,0.736,0.325,0.576,0.536,��쐼,4.9,��
2023/07/27,20:30,0.544,0.827,0.502,0.996,0.740,0.326,0.577,0.536,��쐼,5.2,��
2023/07/27,20:40,0.545,0.826,0.502,0.998,0.739,0.324,0.576,0.535,��쐼,4.1,��
2023/07/27,20:50,0.546,0.827,0.499,0.994,0.740,0.326,0.578,0.535,��쐼,4.3,��
2023/07/27,21:00,0.545,0.829,0.502,0.997,0.740,0.326,0.577,0.534,��쐼,4.7,��
2023/07/27,21:10,0.546,0.827,0.500,0.996,0.738,0.326,0.576,0.534,��쐼,5.9,��
2023/07/27,21:20,0.544,0.828,0.502,0.998,0.737,0.324,0.576,0.533,��쐼,5.3,��
2023/07/27,21:30,0.545,0.827,0.502,0.996,0.739,0.326,0.578,0.534,��쐼,4.1,��
2023/07/27,21:40,0.547,0.826,0.503,0.997,0.739,0.326,0.578,0.534,��,3.5,��
2023/07/27,21:50,0.545,0.828,0.503,0.998,0.740,0.327,0.578,0.535,��쐼,3.4,��
2023/07/27,22:00,0.546,0.828,0.503,0.998,0.739,0.326,0.578,0.536,��쐼,3.6,��
2023/07/27,22:10,0.544,0.827,0.503,0.996,0.739,0.327,0.577,0.534,��쐼,3.3,��
2023/07/27,22:20,0.544,0.828,0.501,0.998,0.739,0.326,0.576,0.534,��쐼,3.8,��
2023/07/27,22:30,0.544,0.828,0.503,0.998,0.741,0.327,0.578,0.535,��,4.1,��
2023/07/27,22:40,0.545,0.830,0.502,0.998,0.737,0.326,0.578,0.535,��,4.3,��
2023/07/27,22:50,0.545,0.829,0.501,0.997,0.738,0.326,0.577,0.536,��,4.1,��
2023/07/27,23:00,0.544,0.828,0.503,0.997,0.738,0.325,0.578,0.536,��쐼,3.3,��
2023/07/27,23:10,0.545,0.828,0.500,0.996,0.739,0.327,0.577,0.536,��쐼,3.1,��
2023/07/27,23:20,0.544,0.829,0.503,0.999,0.739,0.327,0.577,0.536,��쐼,2.9,��
2023/07/27,23:30,0.546,0.827,0.503,0.997,0.738,0.325,0.579,0.536,��쐼,2.5,��
2023/07/27,23:40,0.545,0.828,0.502,0.997,0.737,0.325,0.578,0.534,�쐼,1.9,��
2023/07/27,23:50,0.545,0.828,0.503,0.997,0.740,0.327,0.576,0.537,��쐼,2.6,��
